Queralbs





Hora UTC 23:20
Temperatura 7.9 ºC
Humitat 59.0 %
Pressió 1027.6 hPa
Pluja 0.0 mm
Velocitat vent 0.0 km/h
Direcció vent N
Radiació solar 0.0 W/m²

Dades diàries 2020-10-29



Hora UTC (hivern +1h; estiu +2h)
Temperatura (ºC) Humitat (%) Pressió (hPa) Velocitat vent (km/h) Precipitació (mm) Radiació solar (W/m²)
Hora UTC Aire Humitat Pressió Vel. Dir. Vel. Max Dir. Intent. màx 5 min. Rad. Sol.
00:00 6.4 69.0 1023.6 1.6 NNE 1.6 0.0 0.0
00:05 6.3 69.0 1023.6 0.0 NNE 3.2 0.0 0.0
00:10 6.2 69.0 1023.6 0.0 NNE 1.6 0.0 0.0
00:15 6.2 69.0 1023.6 0.0 NNE 1.6 0.0 0.0
00:20 6.1 69.0 1023.8 0.0 NNE 1.6 0.0 0.0
00:25 6.1 70.0 1023.7 1.6 NNE 3.2 0.0 0.0
00:30 6.2 70.0 1023.8 0.0 NNE 3.2 0.0 0.0
00:35 6.2 70.0 1023.8 1.6 NNE 4.8 0.0 0.0
00:40 6.2 70.0 1023.8 1.6 N 4.8 0.0 0.0
00:45 6.1 70.0 1023.9 0.0 N 3.2 0.0 0.0
00:50 6.1 70.0 1023.9 0.0 N 0.0 0.0 0.0
00:55 6.1 70.0 1023.9 0.0 N 0.0 0.0 0.0
01:00 6.0 69.0 1023.9 0.0 N 0.0 0.0 0.0
01:05 5.9 69.0 1023.9 0.0 N 0.0 0.0 0.0
01:10 5.9 69.0 1023.9 0.0 N 0.0 0.0 0.0
01:15 5.8 70.0 1023.7 0.0 N 0.0 0.0 0.0
01:20 5.7 69.0 1023.6 0.0 N 0.0 0.0 0.0
01:25 5.7 70.0 1023.6 0.0 N 0.0 0.0 0.0
01:30 5.7 70.0 1023.5 0.0 N 0.0 0.0 0.0
01:35 5.7 69.0 1023.6 0.0 N 0.0 0.0 0.0
01:40 5.6 70.0 1023.6 0.0 N 0.0 0.0 0.0
01:45 5.6 70.0 1023.4 0.0 N 0.0 0.0 0.0
01:50 5.6 70.0 1023.5 0.0 N 0.0 0.0 0.0
01:55 5.6 70.0 1023.5 0.0 N 0.0 0.0 0.0
02:00 5.6 70.0 1023.5 0.0 N 0.0 0.0 0.0
02:05 5.6 70.0 1023.5 0.0 N 0.0 0.0 0.0
02:10 5.6 71.0 1023.5 0.0 N 0.0 0.0 0.0
02:15 5.6 70.0 1023.6 0.0 N 0.0 0.0 0.0
02:20 5.7 70.0 1023.6 0.0 N 0.0 0.0 0.0
02:25 5.7 70.0 1023.4 0.0 NNE 0.0 0.0 0.0
02:30 5.8 70.0 1023.5 0.0 NNE 0.0 0.0 0.0
02:35 5.9 70.0 1023.5 0.0 NNE 0.0 0.0 0.0
02:40 5.9 70.0 1023.5 0.0 NNE 0.0 0.0 0.0
02:45 6.1 71.0 1023.5 0.0 NNE 0.0 0.0 0.0
02:50 6.2 70.0 1023.5 0.0 NNE 0.0 0.0 0.0
02:55 6.3 70.0 1023.7 0.0 NNE 0.0 0.0 0.0
03:00 6.3 70.0 1023.7 0.0 NNE 0.0 0.0 0.0
03:05 6.2 69.0 1023.7 0.0 NNE 0.0 0.0 0.0
03:10 6.2 69.0 1023.7 0.0 NNE 0.0 0.0 0.0
03:15 6.1 69.0 1023.8 0.0 NNE 0.0 0.0 0.0
03:20 6.1 69.0 1023.8 0.0 NNE 0.0 0.0 0.0
03:25 6.2 70.0 1023.9 0.0 NNE 0.0 0.0 0.0
03:30 6.3 70.0 1024.0 0.0 NNE 0.0 0.0 0.0
03:35 6.4 70.0 1024.1 0.0 NNE 0.0 0.0 0.0
03:40 6.6 70.0 1024.2 0.0 NNE 0.0 0.0 0.0
03:45 6.7 70.0 1024.2 0.0 NNE 0.0 0.0 0.0
03:50 6.8 70.0 1024.5 0.0 NNW 0.0 0.0 0.0
03:55 6.9 69.0 1024.4 0.0 NNW 0.0 0.0 0.0
04:00 7.0 69.0 1024.5 0.0 NNW 0.0 0.0 0.0
04:05 7.1 69.0 1024.5 0.0 WNW 0.0 0.0 0.0
04:10 7.1 69.0 1024.6 0.0 WNW 0.0 0.0 0.0
04:15 7.2 69.0 1024.7 0.0 WNW 0.0 0.0 0.0
04:20 7.2 68.0 1024.7 0.0 WNW 0.0 0.0 0.0
04:25 7.2 68.0 1024.7 0.0 WNW 0.0 0.0 0.0
04:30 7.3 68.0 1024.6 0.0 WNW 0.0 0.0 0.0
04:35 7.2 68.0 1024.6 0.0 WNW 0.0 0.0 0.0
04:40 7.3 68.0 1024.8 0.0 WNW 0.0 0.0 0.0
04:50 7.3 68.0 1024.8 0.0 WNW 0.0 0.0 0.0
04:55 7.3 68.0 1024.9 0.0 WNW 0.0 0.0 0.0
05:00 7.4 68.0 1025.0 0.0 WNW 0.0 0.0 0.0
05:05 7.5 67.0 1025.0 0.0 WNW 0.0 0.0 0.0
05:10 7.6 67.0 1025.0 0.0 WNW 0.0 0.0 0.0
05:15 7.7 67.0 1024.9 0.0 WNW 0.0 0.0 0.0
05:20 7.7 67.0 1024.9 0.0 WNW 0.0 0.0 0.0
05:25 7.7 66.0 1024.9 0.0 WNW 0.0 0.0 0.0
05:30 7.7 67.0 1024.9 0.0 WNW 0.0 0.0 0.0
05:35 7.7 66.0 1024.9 0.0 WNW 0.0 0.0 0.0
05:40 7.7 67.0 1024.9 0.0 WNW 0.0 0.0 0.0
05:45 7.7 66.0 1024.9 0.0 WNW 0.0 0.0 0.0
05:50 7.6 66.0 1024.9 0.0 WNW 0.0 0.0 0.0
05:55 7.6 66.0 1024.8 0.0 WNW 0.0 0.0 0.0
06:00 7.6 66.0 1024.8 0.0 WNW 0.0 0.0 0.0
06:05 7.5 66.0 1024.8 0.0 WNW 0.0 0.0 0.0
06:10 7.4 66.0 1024.9 0.0 WNW 0.0 0.0 0.0
06:15 7.3 67.0 1024.9 0.0 WNW 0.0 0.0 0.0
06:20 7.3 66.0 1025.1 0.0 WNW 0.0 0.0 0.0
06:25 7.2 66.0 1025.0 0.0 WNW 0.0 0.0 0.0
06:30 7.1 67.0 1025.1 0.0 WNW 0.0 0.0 7.0
06:35 7.0 67.0 1025.1 0.0 WNW 0.0 0.0 11.0
06:40 6.9 67.0 1025.2 0.0 WNW 0.0 0.0 14.0
06:45 6.8 67.0 1025.4 0.0 WNW 0.0 0.0 19.0
06:50 6.8 67.0 1025.2 0.0 WNW 0.0 0.0 25.0
06:55 6.8 67.0 1025.3 0.0 WNW 0.0 0.0 35.0
07:00 6.7 68.0 1025.3 0.0 WNW 0.0 0.0 46.0
07:05 6.8 68.0 1025.5 0.0 WNW 0.0 0.0 54.0
07:10 6.9 68.0 1025.5 0.0 WNW 0.0 0.0 65.0
07:15 7.1 68.0 1025.4 0.0 WNW 0.0 0.0 77.0
07:20 7.2 67.0 1025.5 0.0 WNW 0.0 0.0 88.0
07:25 7.3 67.0 1025.5 0.0 WNW 0.0 0.0 107.0
07:30 7.5 67.0 1025.5 0.0 WNW 0.0 0.0 116.0
07:35 7.6 67.0 1025.6 0.0 WNW 0.0 0.0 128.0
07:40 7.7 66.0 1025.6 0.0 WNW 0.0 0.0 151.0
07:40 7.8 66.0 1025.7 0.0 WNW 0.0 0.0 144.0
07:45 7.9 67.0 1025.6 0.0 WNW 0.0 0.0 120.0
07:50 8.1 66.0 1025.7 0.0 WNW 0.0 0.0 183.0
07:55 8.2 66.0 1025.7 0.0 WNW 0.0 0.0 255.0
08:00 8.4 65.0 1025.7 0.0 NW 0.0 0.0 330.0
08:05 8.7 64.0 1025.8 0.0 W 0.0 0.0 299.0
08:10 8.9 64.0 1025.7 0.0 WSW 0.0 0.0 248.0
08:15 9.1 64.0 1025.7 0.0 SSW 0.0 0.0 218.0
08:20 9.2 64.0 1025.8 0.0 SSW 0.0 0.0 223.0
08:25 9.2 63.0 1025.8 0.0 SSW 0.0 0.0 216.0
08:30 9.3 63.0 1025.8 0.0 SSW 0.0 0.0 234.0
08:35 9.4 63.0 1025.9 0.0 SSW 0.0 0.0 269.0
08:40 9.6 63.0 1026.0 0.0 S 0.0 0.0 239.0
08:45 9.6 63.0 1026.2 0.0 S 0.0 0.0 229.0
08:50 9.7 63.0 1026.3 0.0 S 0.0 0.0 285.0
08:55 9.9 62.0 1026.4 4.8 SSE 8.0 0.0 343.0
09:00 9.9 62.0 1026.5 4.8 ESE 6.4 0.0 378.0
09:05 9.9 62.0 1026.4 1.6 E 6.4 0.0 413.0
09:10 10.2 63.0 1026.3 6.4 SSE 9.7 0.0 380.0
09:15 10.3 63.0 1026.6 3.2 SE 9.7 0.0 396.0
09:20 10.6 62.0 1026.6 4.8 SE 6.4 0.0 415.0
09:25 10.8 61.0 1026.6 3.2 SE 8.0 0.0 471.0
09:30 10.9 61.0 1026.7 3.2 E 8.0 0.0 352.0
09:40 10.9 61.0 1026.6 1.6 E 6.4 0.0 353.0
09:45 11.2 61.0 1026.4 3.2 SE 8.0 0.0 489.0
09:50 11.5 61.0 1026.6 3.2 SSE 8.0 0.0 496.0
09:55 11.8 60.0 1026.3 1.6 SW 9.7 0.0 540.0
10:00 11.9 60.0 1026.2 3.2 SSE 8.0 0.0 582.0
10:05 12.1 59.0 1026.5 4.8 SE 8.0 0.0 538.0
10:10 12.1 59.0 1026.4 8.0 SSE 11.3 0.0 524.0
10:15 12.3 59.0 1026.4 3.2 S 11.3 0.0 520.0
10:20 12.4 59.0 1026.5 4.8 SE 11.3 0.0 531.0
10:25 12.6 59.0 1026.4 9.7 SSW 11.3 0.0 557.0
10:25 12.7 58.0 1026.4 4.8 SE 11.3 0.0 550.0
10:35 13.1 58.0 1026.6 3.2 SSE 11.3 0.0 541.0
10:40 13.3 57.0 1026.6 1.6 S 12.9 0.0 587.0
10:45 13.4 56.0 1026.4 8.0 SSE 12.9 0.0 585.0
10:50 13.7 55.0 1026.4 4.8 SSE 12.9 0.0 598.0
10:55 13.7 56.0 1026.6 8.0 SSE 14.5 0.0 619.0
11:00 13.8 56.0 1026.5 9.7 SE 14.5 0.0 635.0
11:05 14.0 55.0 1026.4 8.0 SSW 12.9 0.0 642.0
11:10 14.1 54.0 1026.6 9.7 S 14.5 0.0 663.0
11:15 14.2 54.0 1026.6 12.9 SE 16.1 0.0 628.0
11:15 14.2 55.0 1026.5 8.0 SE 16.1 0.0 629.0
11:20 14.3 53.0 1026.5 11.3 SSW 17.7 0.0 492.0
11:25 14.1 54.0 1026.4 12.9 SE 17.7 0.0 557.0
11:30 13.9 55.0 1026.3 4.8 SE 14.5 0.0 679.0
11:35 14.1 54.0 1026.2 6.4 SE 14.5 0.0 673.0
11:40 14.2 54.0 1026.2 6.4 SSW 14.5 0.0 643.0
11:45 14.3 55.0 1026.2 8.0 S 14.5 0.0 566.0
11:50 14.3 54.0 1026.2 8.0 SE 14.5 0.0 547.0
11:55 14.3 54.0 1026.1 4.8 SE 14.5 0.0 461.0
12:00 14.2 54.0 1026.1 8.0 SSE 12.9 0.0 584.0
12:05 14.3 54.0 1026.1 3.2 SSE 12.9 0.0 657.0
12:10 14.6 54.0 1026.1 9.7 SSE 16.1 0.0 633.0
12:15 14.8 52.0 1026.0 8.0 SSE 16.1 0.0 564.0
12:20 14.7 53.0 1026.1 8.0 SSE 12.9 0.0 557.0
12:25 14.8 53.0 1026.1 4.8 S 12.9 0.0 571.0
12:30 14.9 53.0 1026.1 3.2 SSE 11.3 0.0 594.0
12:35 14.9 52.0 1025.9 8.0 SSE 11.3 0.0 564.0
12:40 15.0 52.0 1025.8 6.4 SE 11.3 0.0 538.0
12:45 15.2 52.0 1025.9 4.8 SSE 9.7 0.0 533.0
12:50 15.2 52.0 1025.8 1.6 SSE 9.7 0.0 587.0
12:55 15.4 52.0 1025.7 6.4 SSE 8.0 0.0 580.0
13:00 15.6 51.0 1025.7 8.0 SSE 9.7 0.0 517.0
13:05 15.5 51.0 1025.7 6.4 SSE 9.7 0.0 513.0
13:10 15.7 51.0 1025.7 4.8 S 8.0 0.0 526.0
13:15 15.8 50.0 1025.7 3.2 SSE 8.0 0.0 526.0
13:20 15.9 50.0 1025.7 1.6 SE 8.0 0.0 513.0
13:25 15.8 51.0 1025.6 6.4 SE 11.3 0.0 452.0
13:30 15.8 50.0 1025.6 6.4 SE 11.3 0.0 468.0
13:35 15.6 51.0 1025.6 3.2 SSE 11.3 0.0 415.0
13:40 15.7 51.0 1025.7 8.0 S 11.3 0.0 461.0
13:45 15.8 51.0 1025.7 3.2 S 8.0 0.0 411.0
13:50 15.8 51.0 1025.8 3.2 SE 9.7 0.0 404.0
13:55 15.8 51.0 1025.7 4.8 SSE 8.0 0.0 406.0
14:00 15.7 51.0 1025.6 3.2 SSE 8.0 0.0 410.0
14:05 15.7 52.0 1025.6 4.8 SSE 8.0 0.0 367.0
14:10 15.6 51.0 1025.7 6.4 SSE 8.0 0.0 359.0
14:15 15.7 51.0 1025.8 4.8 SSE 8.0 0.0 376.0
14:20 15.7 52.0 1025.9 6.4 SE 6.4 0.0 362.0
14:25 15.6 51.0 1025.8 3.2 SE 6.4 0.0 316.0
14:30 15.5 52.0 1025.8 3.2 SSE 6.4 0.0 325.0
14:35 15.5 53.0 1025.8 6.4 SSE 6.4 0.0 311.0
14:40 15.5 52.0 1025.8 1.6 SE 6.4 0.0 290.0
14:45 15.4 52.0 1025.8 3.2 SE 4.8 0.0 271.0
14:50 15.3 53.0 1026.0 0.0 SE 4.8 0.0 257.0
14:55 15.2 52.0 1025.8 4.8 SE 6.4 0.0 202.0
15:00 14.6 54.0 1026.0 3.2 SE 6.4 0.0 158.0
15:05 14.2 55.0 1026.1 3.2 SSE 8.0 0.0 98.0
15:10 13.8 56.0 1026.1 0.0 SSE 8.0 0.0 107.0
15:15 13.6 57.0 1026.1 1.6 SSE 4.8 0.0 93.0
15:20 13.3 58.0 1026.1 0.0 SSE 4.8 0.0 53.0
15:25 13.2 58.0 1026.2 1.6 SSE 3.2 0.0 44.0
15:30 12.9 59.0 1026.2 0.0 SSE 3.2 0.0 40.0
15:35 12.7 60.0 1026.1 1.6 SSE 3.2 0.0 39.0
15:40 12.4 60.0 1026.2 1.6 SSE 3.2 0.0 35.0
15:45 12.2 61.0 1026.2 0.0 SSE 3.2 0.0 33.0
15:50 11.9 62.0 1026.2 0.0 SSE 3.2 0.0 30.0
15:55 11.7 62.0 1026.3 1.6 SSE 3.2 0.0 28.0
16:00 11.5 63.0 1026.1 0.0 SSE 3.2 0.0 26.0
16:05 11.3 63.0 1026.1 0.0 SSE 1.6 0.0 25.0
16:10 11.2 64.0 1026.0 0.0 NE 0.0 0.0 25.0
16:15 11.1 64.0 1026.1 1.6 NE 3.2 0.0 23.0
16:20 10.9 64.0 1026.2 3.2 NE 3.2 0.0 21.0
16:25 10.8 64.0 1026.4 1.6 NE 3.2 0.0 18.0
16:30 10.6 65.0 1026.3 3.2 NE 3.2 0.0 14.0
16:35 10.4 66.0 1026.3 1.6 NE 4.8 0.0 9.0
16:40 10.3 66.0 1026.1 1.6 NNW 6.4 0.0 7.0
16:45 10.4 67.0 1026.3 0.0 NNW 6.4 0.0 0.0
16:50 10.4 66.0 1026.3 1.6 NNW 4.8 0.0 0.0
16:55 10.2 65.0 1026.3 0.0 NNW 4.8 0.0 0.0
17:00 9.9 66.0 1026.3 3.2 NW 4.8 0.0 0.0
17:05 9.8 66.0 1026.4 0.0 NW 4.8 0.0 0.0
17:10 9.6 67.0 1026.4 0.0 NW 4.8 0.0 0.0
17:15 9.4 67.0 1026.5 0.0 NW 0.0 0.0 0.0
17:20 9.3 68.0 1026.5 0.0 NW 0.0 0.0 0.0
17:25 9.3 68.0 1026.6 0.0 NW 0.0 0.0 0.0
17:30 9.2 68.0 1026.8 0.0 NW 0.0 0.0 0.0
17:40 9.1 68.0 1026.6 0.0 NW 0.0 0.0 0.0
17:45 9.1 68.0 1026.8 0.0 NW 0.0 0.0 0.0
17:50 9.0 68.0 1026.9 0.0 NW 0.0 0.0 0.0
17:55 8.9 68.0 1027.0 0.0 NW 0.0 0.0 0.0
18:00 8.8 68.0 1027.0 0.0 NW 0.0 0.0 0.0
18:05 8.8 68.0 1027.1 0.0 NW 0.0 0.0 0.0
18:10 8.7 68.0 1027.1 0.0 NW 0.0 0.0 0.0
18:15 8.7 68.0 1027.0 0.0 NW 0.0 0.0 0.0
18:20 8.6 69.0 1027.0 0.0 NW 0.0 0.0 0.0
18:25 8.6 68.0 1027.0 0.0 NW 0.0 0.0 0.0
18:30 8.6 68.0 1027.1 0.0 NW 0.0 0.0 0.0
18:35 8.5 68.0 1027.2 0.0 NW 0.0 0.0 0.0
18:40 8.4 68.0 1027.1 0.0 NW 0.0 0.0 0.0
18:45 8.5 68.0 1027.3 1.6 NNW 4.8 0.0 0.0
18:50 8.4 68.0 1027.2 0.0 NNW 4.8 0.0 0.0
18:55 8.4 68.0 1027.2 1.6 NNW 1.6 0.0 0.0
19:00 8.3 68.0 1027.2 0.0 NNW 1.6 0.0 0.0
19:05 8.2 68.0 1027.2 1.6 NNW 3.2 0.0 0.0
19:10 8.1 69.0 1027.2 0.0 NNW 3.2 0.0 0.0
19:15 8.1 69.0 1027.2 0.0 NNW 1.6 0.0 0.0
19:20 8.2 69.0 1027.2 0.0 NNW 3.2 0.0 0.0
19:25 8.3 69.0 1027.2 0.0 NNW 3.2 0.0 0.0
19:30 8.3 68.0 1027.2 1.6 NNW 3.2 0.0 0.0
19:35 8.2 68.0 1027.1 0.0 NNW 3.2 0.0 0.0
19:40 8.2 68.0 1027.2 0.0 NNW 3.2 0.0 0.0
19:45 8.1 68.0 1027.1 1.6 NNW 3.2 0.0 0.0
19:50 8.1 69.0 1027.1 0.0 NNW 4.8 0.0 0.0
19:55 8.2 70.0 1027.2 0.0 NNW 3.2 0.0 0.0
20:00 8.3 69.0 1027.2 0.0 NNW 1.6 0.0 0.0
20:05 8.3 69.0 1027.1 0.0 NNW 1.6 0.0 0.0
20:10 8.4 69.0 1027.2 0.0 NNW 1.6 0.0 0.0
20:15 8.3 68.0 1027.1 0.0 NNW 3.2 0.0 0.0
20:20 8.2 68.0 1027.2 1.6 NNW 3.2 0.0 0.0
20:25 8.1 68.0 1027.1 0.0 NNW 3.2 0.0 0.0
20:30 8.1 68.0 1027.2 1.6 NNW 3.2 0.0 0.0
20:35 8.1 68.0 1027.2 1.6 NNW 1.6 0.0 0.0
20:40 8.0 68.0 1027.2 1.6 N 3.2 0.0 0.0
20:45 7.9 68.0 1027.2 0.0 N 3.2 0.0 0.0
20:50 7.9 69.0 1027.2 0.0 N 3.2 0.0 0.0
20:55 7.9 69.0 1027.3 0.0 N 0.0 0.0 0.0
21:00 8.1 69.0 1027.2 0.0 N 3.2 0.0 0.0
21:05 8.1 68.0 1027.3 0.0 N 3.2 0.0 0.0
21:10 7.9 68.0 1027.3 0.0 N 1.6 0.0 0.0
21:15 7.9 67.0 1027.4 3.2 N 3.2 0.0 0.0
21:20 7.8 66.0 1027.4 0.0 N 4.8 0.0 0.0
21:25 7.9 66.0 1027.4 1.6 N 4.8 0.0 0.0
21:30 8.0 64.0 1027.3 0.0 N 4.8 0.0 0.0
21:35 8.1 64.0 1027.3 3.2 N 3.2 0.0 0.0
21:40 7.9 64.0 1027.3 0.0 N 3.2 0.0 0.0
21:45 8.0 63.0 1027.2 0.0 N 3.2 0.0 0.0
21:50 8.3 63.0 1027.2 0.0 N 3.2 0.0 0.0
21:55 8.4 62.0 1027.2 0.0 N 0.0 0.0 0.0
22:00 8.4 62.0 1027.1 0.0 N 3.2 0.0 0.0
22:05 8.3 61.0 1027.2 4.8 N 4.8 0.0 0.0
22:10 8.7 60.0 1027.2 0.0 N 4.8 0.0 0.0
22:15 8.9 61.0 1027.3 1.6 N 4.8 0.0 0.0
22:20 8.8 60.0 1027.2 0.0 N 1.6 0.0 0.0
22:25 8.8 60.0 1027.2 0.0 N 3.2 0.0 0.0
22:30 8.6 61.0 1027.3 0.0 N 3.2 0.0 0.0
22:30 8.4 60.0 1027.4 0.0 N 1.6 0.0 0.0
22:40 8.2 60.0 1027.3 0.0 N 1.6 0.0 0.0
22:45 8.2 60.0 1027.4 0.0 N 3.2 0.0 0.0
22:50 8.1 60.0 1027.3 1.6 N 3.2 0.0 0.0
22:55 8.0 59.0 1027.4 1.6 N 3.2 0.0 0.0
23:00 8.1 59.0 1027.5 0.0 N 3.2 0.0 0.0
23:05 8.2 58.0 1027.5 0.0 N 1.6 0.0 0.0
23:10 8.2 58.0 1027.6 0.0 N 0.0 0.0 0.0
23:15 8.0 58.0 1027.5 0.0 N 1.6 0.0 0.0
23:20 7.9 59.0 1027.6 0.0 N 1.6 0.0 0.0
Màxima 15.9 71.0 1027.6 12.9 SE 17.7 0.0 679.0
Mínima 5.5 50.0 1023.4
Total 0.0